SCP
0 0 0 0 0 0 0 0 0 0 0 0 0 0 0 0 0 0 0 0 0 0 0 0 0 0 0 0 0 0 0 0 0 0 0 0 0 0
0 0 0 0 0 0 0 0 0 0 0 0 0 0 0 0 0 0 0 0 0 0 0 0 0 0 0 0 0 0 0 0 0 0 0 0 0 0
0 0 0 0 0 0 0 0 0 0 0 0 0 0 0 0 0 0 0 0 0 0 0 0 0 0 0 0 0 0 0 0 0 0 0 0 0 0
0 0 0 0 0 0 0 0 0 0 0 0 0 0 0 0 0 0 0 0 0 0 0 0 0 0 0 0 0 0 0 0 0 0 0 0 0 0
0 0 0 0 0 0 0 0 0 0 0 0 0 0 0 0 0 0 0 0 0 0 0 0 0 0 0 0 0 0 0 0 0 0 0 0 0 0
0 0 0 0 0 0 0 0 0 0 0 0 0 0 0 0 0 0 0 0 0 0 0 0 0 0 0 0 0 0 0 0 0 0 0 0 0 0
0 0 0 0 0 0 0 0 0 0 0 0 0 0 0 0 0 0 0 0 0 0 0 0 0 0 0 0 0 0 0 0 0 0 0 0 0 0
0 0 0 0 0 0 0 0 0 0 0 0 0 0 0 0 0 0 0 0 0 0 0 0 0 0 0 0 0 0 0 0 0 0 0 -0 -0 -0
0 0 0 0 0 0 0 0 0 0 0 0 0 0 0 0 0 0 0 0 0 0 0 0 0 0 0 0 0 0 0 0 0 0 0 0 0 0
0 0 0 0 0 0 0 0 0 0 0 0 0 0 0 0 0 0 0 0 0 0 0 0 0 0 0 0 0 0 0 0 0 0 0 0 0 0
0 0 0 0 0 0 0 0 0 0 0 0 0 0 0 0 0 0 0 0 0 0 0 0 0 0 0 0 0 0 0 0 0 0 0 0 0 -0
0 0 0 0 0 0 0 0 0 0 0 0 0 0 0 0 0 0 0 0 0 0 0 0 0 0 0 0 0 0 0 0 0 0 0 0 0 0
0 0 0 0 0 0 0 0 0 0 0 0 0 0 0 0 0 0 0 0 0 0 0 0 0 0 0 0 0 0 0 0 0 0 0 0 0 0
0 0 0 0 0 0 0 0 0 0 0 0 0 0 0 0 0 0 0 0 0 0 0 0 0 0 0 0 0 0 0 0 0 0 0 0 0 0
0 0 0 0 0 0 0 0 0 0 0 0 0 0 0 0 0 0 0 0 0 0 0 0 0 0 0 0 0 0 0 0 0 0 0 0 0 0
0 0 0 0 0 0 0 0 0 0 0 0 0 0 0 0 0 0 0 0 0 0 0 0 0 0 0 0 0 0 0 0 0 0 0 0 0 0
0 0 0 0 0 0 0 0 0 0 0 0 0 0 0 0 0 0 0 0 0 0 0 0 0 0 0 0 0 0 0 0 0 0 0 0 0 0
0 0 0 0 0 0 0 0 0 0 0 0 0 0 0 0 0 0 0 0 0 0 0 0 0 0 0 0 0 0 0 0 0 0 0 0 0 0
0 0 0 0 0 0 0 0 0 0 0 0 0 0 0 0 0 0 0 0 0 0 0 0 0 0 0 0 0 0 0 0 0 0 0 0 0 0
0 0 0 0 0 0 0 0 0 0 0 0 0 0 0 0 0 0 0 0 0 0 0 0 0 0 0 0 0 0 0 0 0 0 0 0 0 0
0 0 0 0 0 0 0 0 0 0 0 0 0 0 0 0 0 0 0 0 0 0 0 0 0 0 0 0 0 0 0 0 0 0 0 0 0 0
0 0 0 0 0 0 0 0 0 0 0 0 0 0 0 0 0 0 0 0 0 0 0 0 0 0 0 0 0 0 0 0 0 0 0 0 0 0
0 0 0 0 0 0 0 0 0 0 0 0 0 0 0 0 0 0 0 0 0 0 0 0 0 0 0 0 0 0 0 0 0 0 0 0 0 0
Wind_Speed
1 2 2 2 2 2 1 1 2 2 1 1 1 2 2 3 5 5 5 9 9 9 8 8 8 7 7 7 6 6 5 5 5 4 3 2 1 1
1 1 1 2 1 1 1 1 1 2 2 1 1 2 3 4 6 5 6 10 9 9 8 8 8 8 7 7 6 6 6 5 5 5 5 4 4 3
1 1 1 1 2 1 1 1 0 1 2 1 1 2 3 4 5 5 5 5 5 9 9 8 8 8 8 7 6 6 6 6 6 6 6 6 6 6
1 1 2 1 1 2 1 1 0 1 2 2 2 2 3 4 5 4 4 5 4 8 9 8 8 8 8 7 7 7 6 6 7 6 6 7 7 6
1 1 1 1 1 1 1 1 1 0 2 3 2 2 2 3 4 3 4 3 4 6 8 8 8 8 8 7 7 7 6 6 6 6 6 6 6 6
1 1 2 2 2 2 1 1 1 0 1 2 3 3 2 2 3 3 3 2 3 4 4 6 7 7 7 7 6 6 5 5 5 6 6 6 6 6
1 2 3 4 4 3 2 2 2 1 1 2 3 2 2 3 3 3 3 3 3 4 4 4 4 3 3 4 5 5 4 4 4 5 5 5 5 5
1 1 3 3 4 4 5 5 3 1 1 1 2 2 2 2 2 2 2 3 2 2 3 3 4 3 3 3 5 6 5 5 4 4 4 4 4 4
2 2 2 3 3 2 2 3 4 4 2 1 2 1 2 2 2 3 2 2 2 2 3 2 2 3 3 4 8 7 6 6 5 4 4 3 3 2
3 3 3 4 5 4 3 3 4 4 3 1 1 1 2 1 1 2 3 2 1 1 2 2 2 2 3 3 7 8 7 6 6 6 5 4 3 2
4 5 4 4 7 6 2 2 2 2 4 5 4 4 3 3 2 1 2 2 2 2 1 1 2 2 2 3 5 9 8 8 7 6 6 5 5 4
3 5 7 6 7 7 3 2 2 2 2 3 2 2 2 2 2 2 1 1 1 1 1 1 1 2 1 2 3 5 5 7 8 8 7 7 6 4
2 3 3 5 6 6 4 3 2 2 1 1 2 2 2 2 1 1 1 1 1 1 1 1 1 1 1 1 3 4 5 4 5 5 8 9 8 6
2 3 3 3 3 4 3 3 3 3 2 0 1 2 1 1 1 1 2 1 1 2 3 2 1 1 1 1 1 2 3 3 4 4 4 7 9 9
3 4 4 2 1 1 1 2 2 2 1 1 1 1 1 1 1 1 2 2 2 2 3 3 2 2 2 2 1 1 2 2 3 3 4 4 5 4
2 3 3 1 1 1 1 1 1 1 2 1 1 1 1 1 1 2 1 2 2 2 3 4 3 2 2 2 2 2 2 2 3 3 3 3 4 4
1 1 1 1 1 1 1 1 1 0 1 1 1 1 0 0 1 1 1 2 2 2 2 3 3 3 3 3 2 2 2 3 3 3 3 3 4 4
1 1 1 1 1 1 0 0 1 1 1 1 1 1 1 1 1 1 1 2 2 2 2 2 2 2 2 3 4 4 3 3 2 3 3 3 3 3
0 1 0 0 1 0 1 1 1 1 1 1 1 1 1 1 1 1 1 1 2 2 2 2 2 2 3 3 3 5 3 3 2 2 2 3 3 4
1 1 0 0 1 1 1 1 1 1 1 2 2 2 2 2 2 1 1 2 2 2 2 2 2 3 3 3 2 3 6 4 3 3 3 3 3 3
1 1 1 0 1 1 1 1 1 1 1 2 2 2 2 2 2 2 2 2 3 3 3 3 3 5 3 2 3 3 4 8 7 5 4 3 3 3
1 0 1 1 1 1 1 1 1 1 1 2 2 2 2 2 3 4 3 2 3 3 3 3 3 2 2 3 5 4 4 4 7 10 9 7 4 4
1 1 1 1 1 1 1 1 2 2 2 2 3 3 3 3 3 3 3 3 3 3 3 3 2 2 3 4 5 4 5 4 4 4 5 10 13 12
Wind_Direction
257 261 268 274 268 258 243 216 206 217 217 187 114 97 109 106 115 116 109 112 112 109 107 105 101 95 87 80 74 72 69 67 65 65 74 93 102 114
275 311 306 307 308 303 290 246 214 203 199 165 137 131 112 113 115 109 103 113 113 111 107 103 98 93 88 82 79 75 71 71 71 67 68 73 81 87
307 306 311 337 335 319 314 302 278 171 168 143 110 105 109 108 110 111 111 110 111 115 112 108 102 97 90 84 80 78 77 75 74 73 73 74 74 72
19 13 354 348 340 339 336 304 216 185 156 156 150 133 115 118 120 125 124 120 114 120 120 115 110 102 95 89 83 77 75 75 74 74 76 80 81 79
55 27 6 7 342 337 330 324 299 221 146 151 161 150 129 135 128 131 124 122 123 125 124 121 117 110 104 97 91 85 81 80 79 80 80 80 81 81
63 55 31 21 352 319 309 322 304 131 137 138 141 143 142 146 146 150 146 152 151 142 127 131 130 125 117 111 106 101 96 94 91 89 87 85 84 82
81 83 70 67 54 31 23 9 6 53 114 134 145 145 153 165 179 179 163 159 153 148 148 152 151 148 140 133 126 122 118 115 111 106 102 100 96 91
61 85 109 89 78 79 75 62 54 69 97 123 138 155 170 173 169 163 159 159 170 164 157 165 160 159 159 156 155 151 146 138 131 125 118 111 105 101
45 29 42 58 63 73 95 91 68 58 77 141 142 174 172 169 173 176 171 166 160 163 153 171 162 160 158 159 166 169 168 166 163 157 151 144 135 128
57 49 50 42 25 26 47 70 75 54 48 92 106 114 118 131 187 185 168 154 155 150 147 181 171 166 151 153 177 181 181 186 190 192 193 194 192 195
62 51 45 52 29 25 37 69 86 97 84 90 92 102 101 98 114 126 148 159 175 172 151 179 173 160 161 171 187 192 193 201 209 212 214 215 217 222
94 80 59 52 38 25 23 40 59 40 74 110 115 141 148 140 144 159 177 185 150 154 144 155 167 157 179 186 178 187 206 211 216 221 224 227 221 218
100 90 74 64 49 27 21 39 36 339 321 166 146 140 132 135 146 133 110 153 138 135 148 158 174 182 184 190 191 188 192 198 201 216 223 227 224 217
70 90 96 88 58 26 24 19 355 336 299 232 121 123 134 145 149 148 148 156 169 162 160 163 184 187 199 218 220 199 195 192 188 202 210 213 223 228
81 101 123 118 75 360 308 333 337 315 316 62 88 133 146 149 148 160 184 188 193 192 176 183 199 202 211 216 225 207 204 208 197 206 207 200 204 206
121 130 138 138 300 321 311 285 282 336 360 4 1 23 113 158 179 187 208 205 196 193 191 189 200 205 219 232 230 225 211 218 213 208 212 219 211 204
118 149 180 188 216 236 244 261 278 273 306 294 296 295 282 235 223 213 219 224 217 206 200 207 207 206 208 211 234 239 229 230 223 210 206 220 224 216
101 189 182 210 238 229 235 247 284 317 319 321 305 313 309 287 276 261 239 232 238 226 214 209 200 212 238 244 221 229 232 231 225 218 216 221 233 224
118 277 297 3 340 358 331 321 347 16 349 329 315 308 299 287 258 258 268 263 252 250 233 217 210 220 242 253 246 218 225 236 233 236 234 229 233 232
269 312 3 11 337 331 337 5 16 32 2 336 328 317 313 305 294 270 261 274 269 260 256 242 226 225 239 245 246 236 212 220 232 239 245 244 238 232
252 290 324 338 345 337 355 19 19 8 346 327 320 308 297 295 295 287 277 274 272 263 257 251 236 232 236 247 257 246 222 212 216 221 230 239 244 235
281 291 335 347 353 2 40 16 347 339 328 308 305 305 306 308 301 292 290 279 269 268 262 256 242 232 239 250 261 256 243 232 233 234 234 228 223 231
332 353 7 5 12 29 27 352 335 336 340 328 323 318 313 311 300 294 296 293 290 292 287 273 264 256 264 264 268 269 267 252 243 237 239 235 232 236